Time,TemperatureF,DewpointF,PressureIn,WindDirection,WindDirectionDegrees,WindSpeedMPH,WindSpeedGustMPH,Humidity,HourlyPrecipIn,Conditions,Clouds,dailyrainin,SoftwareType,DateUTC
2014-01-16 00:01:00,38.6,37.6,29.90,NNW,337,2.0,2.0,96,0.00,,---,0.00,VWS V14.00,2014-01-16 05:01:00,
2014-01-16 00:02:00,38.6,37.6,29.90,NNW,337,2.0,2.0,96,0.00,,---,0.00,VWS V14.00,2014-01-16 05:02:00,
2014-01-16 00:05:00,38.7,37.7,29.90,NNW,337,1.0,2.0,96,0.00,,---,0.00,VWS V14.00,2014-01-16 05:05:00,
2014-01-16 00:06:00,38.7,37.7,29.90,NNW,337,0.0,0.0,96,0.00,,---,0.00,VWS V14.00,2014-01-16 05:06:00,
2014-01-16 00:11:00,38.8,37.8,29.91,NNW,337,0.0,0.0,96,0.00,,---,0.00,VWS V14.00,2014-01-16 05:11:00,
2014-01-16 00:16:00,38.8,37.8,29.91,NNW,337,0.0,0.0,96,0.00,,---,0.00,VWS V14.00,2014-01-16 05:16:00,
2014-01-16 00:21:00,38.9,37.9,29.90,NNW,337,0.0,0.0,96,0.00,,---,0.00,VWS V14.00,2014-01-16 05:21:00,
2014-01-16 00:26:00,39.0,38.0,29.90,NNW,337,0.0,0.0,96,0.00,,---,0.00,VWS V14.00,2014-01-16 05:26:00,
2014-01-16 00:31:00,39.0,38.0,29.90,NNW,337,2.0,2.0,96,0.00,,---,0.00,VWS V14.00,2014-01-16 05:31:00,
2014-01-16 00:37:00,39.1,38.1,29.90,NNW,337,0.0,0.0,96,0.00,,---,0.00,VWS V14.00,2014-01-16 05:37:00,
2014-01-16 00:42:00,39.2,38.2,29.90,NNW,337,0.0,1.0,96,0.00,,---,0.00,VWS V14.00,2014-01-16 05:42:00,
2014-01-16 00:47:00,39.2,38.2,29.89,NNW,337,0.0,2.0,96,0.00,,---,0.00,VWS V14.00,2014-01-16 05:47:00,
2014-01-16 00:52:00,39.2,38.2,29.90,NNW,337,0.0,1.0,96,0.00,,---,0.00,VWS V14.00,2014-01-16 05:52:00,
2014-01-16 00:57:00,39.3,38.3,29.90,NNW,337,0.0,0.0,96,0.00,,---,0.00,VWS V14.00,2014-01-16 05:57:00,
2014-01-16 01:02:00,39.3,38.3,29.89,NNW,337,1.0,1.0,96,0.00,,---,0.00,VWS V14.00,2014-01-16 06:02:00,
2014-01-16 01:27:00,39.4,38.4,29.91,NW,309,1.0,2.0,96,0.00,,---,0.00,VWS V14.00,2014-01-16 06:27:00,
2014-01-16 01:32:00,39.4,38.4,29.91,NW,309,0.0,0.0,96,0.00,,---,0.00,VWS V14.00,2014-01-16 06:32:00,
2014-01-16 01:37:00,39.4,38.4,29.91,NW,309,0.0,0.0,96,0.00,,---,0.00,VWS V14.00,2014-01-16 06:37:00,
2014-01-16 01:42:00,39.4,38.4,29.91,NW,309,1.0,2.0,96,0.00,,---,0.00,VWS V14.00,2014-01-16 06:42:00,
2014-01-16 01:47:00,39.5,38.5,29.91,NW,321,3.0,3.0,96,0.00,,---,0.00,VWS V14.00,2014-01-16 06:47:00,
2014-01-16 01:52:00,39.5,38.5,29.91,NW,321,2.0,4.0,96,0.00,,---,0.00,VWS V14.00,2014-01-16 06:52:00,
2014-01-16 01:57:00,39.5,38.5,29.91,NNW,329,3.0,4.0,96,0.00,,---,0.00,VWS V14.00,2014-01-16 06:57:00,
2014-01-16 02:02:00,39.5,38.5,29.91,NNW,331,1.0,2.0,96,0.00,,---,0.00,VWS V14.00,2014-01-16 07:02:00,
2014-01-16 02:07:00,39.6,38.3,29.90,NW,308,3.0,3.0,95,0.00,,---,0.00,VWS V14.00,2014-01-16 07:07:00,
2014-01-16 02:12:00,39.6,38.3,29.91,NW,308,1.0,1.0,95,0.00,,---,0.00,VWS V14.00,2014-01-16 07:12:00,
2014-01-16 02:17:00,39.7,38.1,29.91,NW,310,2.0,2.0,94,0.00,,---,0.00,VWS V14.00,2014-01-16 07:17:00,
2014-01-16 02:22:00,39.8,37.7,29.91,NW,311,3.0,3.0,92,0.00,,---,0.00,VWS V14.00,2014-01-16 07:22:00,
2014-01-16 02:27:00,39.8,37.4,29.91,NW,325,2.0,3.0,91,0.00,,---,0.00,VWS V14.00,2014-01-16 07:27:00,
2014-01-16 02:32:00,39.8,36.8,29.91,NNW,327,3.0,4.0,89,0.00,,---,0.00,VWS V14.00,2014-01-16 07:32:00,
2014-01-16 02:37:00,39.9,36.6,29.91,WNW,298,0.0,1.0,88,0.00,,---,0.00,VWS V14.00,2014-01-16 07:37:00,
2014-01-16 02:42:00,39.8,36.5,29.90,NW,324,1.0,3.0,88,0.00,,---,0.00,VWS V14.00,2014-01-16 07:42:00,
2014-01-16 02:47:00,39.8,36.2,29.89,NNW,333,0.0,1.0,87,0.00,,---,0.00,VWS V14.00,2014-01-16 07:47:00,
2014-01-16 02:52:00,39.7,35.9,29.90,NW,315,1.0,3.0,86,0.00,,---,0.00,VWS V14.00,2014-01-16 07:52:00,
2014-01-16 02:58:00,39.7,35.9,29.91,NW,309,3.0,4.0,86,0.00,,---,0.00,VWS V14.00,2014-01-16 07:58:00,
2014-01-16 03:03:00,39.6,35.8,29.91,NW,315,5.0,5.0,86,0.00,,---,0.00,VWS V14.00,2014-01-16 08:03:00,
2014-01-16 03:08:00,39.6,35.8,29.91,NW,312,0.0,0.0,86,0.00,,---,0.00,VWS V14.00,2014-01-16 08:08:00,
2014-01-16 03:13:00,39.5,35.4,29.90,NW,313,2.0,3.0,85,0.00,,---,0.00,VWS V14.00,2014-01-16 08:13:00,
2014-01-16 03:18:00,39.5,35.7,29.90,NW,313,1.0,1.0,86,0.00,,---,0.00,VWS V14.00,2014-01-16 08:18:00,
2014-01-16 03:23:00,39.4,35.3,29.90,NW,319,2.0,2.0,85,0.00,,---,0.00,VWS V14.00,2014-01-16 08:23:00,
2014-01-16 03:28:00,39.3,35.2,29.89,NNW,335,5.0,5.0,85,0.00,,---,0.00,VWS V14.00,2014-01-16 08:28:00,
2014-01-16 03:33:00,39.3,35.2,29.89,NNW,329,1.0,3.0,85,0.00,,---,0.00,VWS V14.00,2014-01-16 08:33:00,
2014-01-16 03:38:00,39.2,35.1,29.88,NW,324,4.0,4.0,85,0.00,,---,0.00,VWS V14.00,2014-01-16 08:38:00,
2014-01-16 03:43:00,39.2,34.8,29.89,NW,323,2.0,3.0,84,0.00,,---,0.00,VWS V14.00,2014-01-16 08:43:00,
2014-01-16 03:48:00,39.1,34.7,29.89,NW,317,0.0,2.0,84,0.00,,---,0.00,VWS V14.00,2014-01-16 08:48:00,
2014-01-16 03:53:00,39.1,34.7,29.89,NW,317,0.0,0.0,84,0.00,,---,0.00,VWS V14.00,2014-01-16 08:53:00,
2014-01-16 03:58:00,39.0,34.3,29.88,NW,319,1.0,1.0,83,0.00,,---,0.00,VWS V14.00,2014-01-16 08:58:00,
2014-01-16 04:03:00,39.0,34.3,29.89,WNW,302,1.0,2.0,83,0.00,,---,0.00,VWS V14.00,2014-01-16 09:03:00,
2014-01-16 04:08:00,39.0,34.3,29.90,WNW,302,2.0,3.0,83,0.00,,---,0.00,VWS V14.00,2014-01-16 09:08:00,
2014-01-16 04:13:00,38.9,33.9,29.90,NNW,331,5.0,6.0,82,0.00,,---,0.00,VWS V14.00,2014-01-16 09:13:00,
2014-01-16 04:18:00,38.9,33.9,29.90,NW,311,2.0,2.0,82,0.00,,---,0.00,VWS V14.00,2014-01-16 09:18:00,
2014-01-16 04:24:00,38.8,34.1,29.90,NW,311,2.0,2.0,83,0.00,,---,0.00,VWS V14.00,2014-01-16 09:24:00,
2014-01-16 04:29:00,38.8,34.1,29.89,NW,326,3.0,3.0,83,0.00,,---,0.00,VWS V14.00,2014-01-16 09:29:00,
2014-01-16 04:34:00,38.7,34.0,29.89,NW,320,1.0,2.0,83,0.00,,---,0.00,VWS V14.00,2014-01-16 09:34:00,
2014-01-16 04:39:00,38.7,34.0,29.89,NW,318,2.0,2.0,83,0.00,,---,0.00,VWS V14.00,2014-01-16 09:39:00,
2014-01-16 04:44:00,38.6,33.9,29.89,NW,320,2.0,4.0,83,0.00,,---,0.00,VWS V14.00,2014-01-16 09:44:00,
2014-01-16 04:49:00,38.5,33.8,29.89,NW,320,0.0,0.0,83,0.00,,---,0.00,VWS V14.00,2014-01-16 09:49:00,
2014-01-16 04:54:00,38.5,33.8,29.89,WNW,288,4.0,4.0,83,0.00,,---,0.00,VWS V14.00,2014-01-16 09:54:00,
2014-01-16 04:59:00,38.4,34.0,29.90,NW,326,2.0,2.0,84,0.00,,---,0.00,VWS V14.00,2014-01-16 09:59:00,
2014-01-16 05:04:00,38.3,33.9,29.90,NW,315,2.0,4.0,84,0.00,,---,0.00,VWS V14.00,2014-01-16 10:04:00,
2014-01-16 05:09:00,38.2,33.8,29.90,NW,320,4.0,4.0,84,0.00,,---,0.00,VWS V14.00,2014-01-16 10:09:00,
2014-01-16 05:14:00,38.2,33.8,29.90,NW,314,4.0,6.0,84,0.00,,---,0.00,VWS V14.00,2014-01-16 10:14:00,
2014-01-16 05:19:00,38.1,33.7,29.91,WNW,303,3.0,5.0,84,0.00,,---,0.00,VWS V14.00,2014-01-16 10:19:00,
2014-01-16 05:24:00,38.0,33.6,29.91,NW,325,4.0,5.0,84,0.00,,---,0.00,VWS V14.00,2014-01-16 10:24:00,
2014-01-16 05:29:00,38.0,33.6,29.91,WNW,297,1.0,4.0,84,0.00,,---,0.00,VWS V14.00,2014-01-16 10:29:00,
2014-01-16 05:34:00,38.0,33.6,29.91,WNW,284,3.0,4.0,84,0.00,,---,0.00,VWS V14.00,2014-01-16 10:34:00,
2014-01-16 05:39:00,38.0,33.6,29.91,NW,317,2.0,3.0,84,0.00,,---,0.00,VWS V14.00,2014-01-16 10:39:00,
2014-01-16 05:44:00,38.0,33.9,29.90,NW,319,3.0,4.0,85,0.00,,---,0.00,VWS V14.00,2014-01-16 10:44:00,
2014-01-16 05:49:00,37.9,33.8,29.91,NW,314,2.0,4.0,85,0.00,,---,0.00,VWS V14.00,2014-01-16 10:49:00,
2014-01-16 05:54:00,37.9,33.8,29.90,NW,313,1.0,1.0,85,0.00,,---,0.00,VWS V14.00,2014-01-16 10:54:00,
2014-01-16 06:00:00,37.9,33.8,29.89,WNW,302,4.0,6.0,85,0.00,,---,0.00,VWS V14.00,2014-01-16 11:00:00,
2014-01-16 06:05:00,37.9,33.8,29.89,NW,314,2.0,2.0,85,0.00,,---,0.00,VWS V14.00,2014-01-16 11:05:00,
2014-01-16 06:10:00,37.8,33.7,29.89,North,351,3.0,4.0,85,0.00,,---,0.00,VWS V14.00,2014-01-16 11:10:00,
2014-01-16 06:15:00,37.9,33.8,29.88,NNW,337,1.0,1.0,85,0.00,,---,0.00,VWS V14.00,2014-01-16 11:15:00,
2014-01-16 06:20:00,37.8,33.7,29.89,NNW,336,0.0,1.0,85,0.00,,---,0.00,VWS V14.00,2014-01-16 11:20:00,
2014-01-16 06:25:00,37.8,33.7,29.89,NNW,336,2.0,2.0,85,0.00,,---,0.00,VWS V14.00,2014-01-16 11:25:00,
2014-01-16 06:30:00,37.8,33.7,29.89,NW,313,2.0,2.0,85,0.00,,---,0.00,VWS V14.00,2014-01-16 11:30:00,
2014-01-16 06:35:00,37.8,33.7,29.89,NW,313,0.0,1.0,85,0.00,,---,0.00,VWS V14.00,2014-01-16 11:35:00,
2014-01-16 06:40:00,37.8,33.7,29.89,NW,313,2.0,2.0,85,0.00,,---,0.00,VWS V14.00,2014-01-16 11:40:00,
2014-01-16 06:45:00,37.7,33.6,29.90,NW,309,3.0,3.0,85,0.00,,---,0.00,VWS V14.00,2014-01-16 11:45:00,
2014-01-16 06:50:00,37.7,33.6,29.90,NNW,332,3.0,4.0,85,0.00,,---,0.00,VWS V14.00,2014-01-16 11:50:00,
2014-01-16 06:55:00,37.7,33.9,29.91,WNW,296,2.0,3.0,86,0.00,,---,0.00,VWS V14.00,2014-01-16 11:55:00,
2014-01-16 07:00:00,37.7,33.6,29.90,NNW,337,4.0,5.0,85,0.00,,---,0.00,VWS V14.00,2014-01-16 12:00:00,
2014-01-16 07:05:00,37.6,33.5,29.91,NNW,332,1.0,2.0,85,0.00,,---,0.00,VWS V14.00,2014-01-16 12:05:00,
2014-01-16 07:10:00,37.6,33.8,29.89,NNW,332,1.0,2.0,86,0.00,,---,0.00,VWS V14.00,2014-01-16 12:10:00,
2014-01-16 07:15:00,37.5,33.4,29.89,NNE,22,3.0,3.0,85,0.00,,---,0.00,VWS V14.00,2014-01-16 12:15:00,
2014-01-16 07:20:00,37.4,33.3,29.91,NNW,332,3.0,3.0,85,0.00,,---,0.00,VWS V14.00,2014-01-16 12:20:00,
2014-01-16 07:25:00,37.4,33.3,29.91,NW,311,2.0,3.0,85,0.00,,---,0.00,VWS V14.00,2014-01-16 12:25:00,
2014-01-16 07:30:00,37.3,33.2,29.90,NW,325,3.0,4.0,85,0.00,,---,0.00,VWS V14.00,2014-01-16 12:30:00,
2014-01-16 07:36:00,37.2,33.1,29.90,NNW,343,4.0,6.0,85,0.00,,---,0.00,VWS V14.00,2014-01-16 12:36:00,
2014-01-16 07:41:00,37.1,33.0,29.91,NNW,343,5.0,5.0,85,0.00,,---,0.00,VWS V14.00,2014-01-16 12:41:00,
2014-01-16 07:46:00,37.1,33.0,29.91,WNW,300,2.0,2.0,85,0.00,,---,0.00,VWS V14.00,2014-01-16 12:46:00,
2014-01-16 07:51:00,37.0,32.9,29.91,NNW,340,3.0,4.0,85,0.00,,---,0.00,VWS V14.00,2014-01-16 12:51:00,
2014-01-16 07:56:00,36.9,33.1,29.91,NW,324,1.0,3.0,86,0.00,,---,0.00,VWS V14.00,2014-01-16 12:56:00,
2014-01-16 08:01:00,36.9,33.1,29.90,NW,324,2.0,3.0,86,0.00,,---,0.00,VWS V14.00,2014-01-16 13:01:00,
2014-01-16 08:06:00,36.8,33.0,29.91,NW,324,2.0,2.0,86,0.00,,---,0.00,VWS V14.00,2014-01-16 13:06:00,
2014-01-16 08:11:00,36.8,33.0,29.92,NW,318,2.0,4.0,86,0.00,,---,0.00,VWS V14.00,2014-01-16 13:11:00,
2014-01-16 08:16:00,36.7,33.2,29.92,NW,318,2.0,2.0,87,0.00,,---,0.00,VWS V14.00,2014-01-16 13:16:00,
2014-01-16 08:21:00,36.7,33.2,29.93,NW,318,1.0,3.0,87,0.00,,---,0.00,VWS V14.00,2014-01-16 13:21:00,
2014-01-16 08:26:00,36.7,34.6,29.92,NW,318,1.0,3.0,92,0.00,,---,0.00,VWS V14.00,2014-01-16 13:26:00,
2014-01-16 08:31:00,36.8,33.3,29.93,NW,318,0.0,0.0,87,0.00,,---,0.00,VWS V14.00,2014-01-16 13:31:00,
2014-01-16 08:36:00,36.8,33.3,29.94,NW,318,0.0,0.0,87,0.00,,---,0.00,VWS V14.00,2014-01-16 13:36:00,
2014-01-16 08:41:00,36.8,33.3,29.93,NW,318,0.0,0.0,87,0.00,,---,0.00,VWS V14.00,2014-01-16 13:41:00,
2014-01-16 08:46:00,36.8,33.3,29.93,NNW,340,0.0,0.0,87,0.00,,---,0.00,VWS V14.00,2014-01-16 13:46:00,
2014-01-16 08:51:00,36.8,33.3,29.94,NNW,340,2.0,3.0,87,0.00,,---,0.00,VWS V14.00,2014-01-16 13:51:00,
2014-01-16 08:57:00,36.8,33.3,29.93,NW,324,1.0,2.0,87,0.00,,---,0.00,VWS V14.00,2014-01-16 13:57:00,
2014-01-16 09:02:00,36.8,33.3,29.94,NW,320,4.0,5.0,87,0.00,,---,0.00,VWS V14.00,2014-01-16 14:02:00,
2014-01-16 09:07:00,36.8,33.6,29.94,NW,320,1.0,1.0,88,0.00,,---,0.00,VWS V14.00,2014-01-16 14:07:00,
2014-01-16 09:12:00,36.9,33.7,29.96,NW,320,3.0,3.0,88,0.00,,---,0.00,VWS V14.00,2014-01-16 14:12:00,
2014-01-16 09:17:00,36.9,33.4,29.97,West,280,2.0,3.0,87,0.00,,---,0.00,VWS V14.00,2014-01-16 14:17:00,
2014-01-16 09:22:00,37.0,33.8,29.97,West,280,3.0,4.0,88,0.00,,---,0.00,VWS V14.00,2014-01-16 14:22:00,
2014-01-16 09:27:00,36.9,33.7,29.96,NW,309,3.0,4.0,88,0.00,,---,0.00,VWS V14.00,2014-01-16 14:27:00,
2014-01-16 09:32:00,36.9,33.7,29.95,NW,314,1.0,2.0,88,0.00,,---,0.00,VWS V14.00,2014-01-16 14:32:00,
2014-01-16 09:37:00,36.9,33.7,29.95,NW,314,2.0,2.0,88,0.00,,---,0.00,VWS V14.00,2014-01-16 14:37:00,
2014-01-16 09:42:00,37.0,33.8,29.95,NW,326,0.0,1.0,88,0.00,,---,0.00,VWS V14.00,2014-01-16 14:42:00,
2014-01-16 09:47:00,37.1,33.9,29.94,WNW,300,4.0,4.0,88,0.00,,---,0.00,VWS V14.00,2014-01-16 14:47:00,
2014-01-16 09:52:00,37.1,33.9,29.95,NW,313,1.0,2.0,88,0.00,,---,0.00,VWS V14.00,2014-01-16 14:52:00,
2014-01-16 09:57:00,37.2,34.3,29.94,West,280,2.0,4.0,89,0.00,,---,0.00,VWS V14.00,2014-01-16 14:57:00,
2014-01-16 10:02:00,37.3,34.4,29.94,NW,321,0.0,1.0,89,0.00,,---,0.00,VWS V14.00,2014-01-16 15:02:00,
2014-01-16 10:07:00,37.4,34.5,29.96,NW,321,2.0,4.0,89,0.00,,---,0.00,VWS V14.00,2014-01-16 15:07:00,
2014-01-16 10:12:00,37.4,34.2,29.95,NW,304,0.0,0.0,88,0.00,,---,0.00,VWS V14.00,2014-01-16 15:12:00,
2014-01-16 10:17:00,37.4,34.5,29.95,NW,304,1.0,2.0,89,0.00,,---,0.00,VWS V14.00,2014-01-16 15:17:00,
2014-01-16 10:22:00,37.4,34.2,29.95,NW,312,3.0,3.0,88,0.00,,---,0.00,VWS V14.00,2014-01-16 15:22:00,
2014-01-16 10:27:00,37.4,34.5,29.95,WNW,302,0.0,0.0,89,0.00,,---,0.00,VWS V14.00,2014-01-16 15:27:00,
2014-01-16 10:33:00,37.5,34.6,29.95,WNW,302,2.0,2.0,89,0.00,,---,0.00,VWS V14.00,2014-01-16 15:33:00,
2014-01-16 10:38:00,37.5,34.3,29.95,WNW,302,3.0,3.0,88,0.00,,---,0.00,VWS V14.00,2014-01-16 15:38:00,
2014-01-16 10:43:00,37.5,34.3,29.94,WNW,296,3.0,3.0,88,0.00,,---,0.00,VWS V14.00,2014-01-16 15:43:00,
2014-01-16 10:48:00,37.5,34.3,29.94,NW,319,0.0,1.0,88,0.00,,---,0.00,VWS V14.00,2014-01-16 15:48:00,
2014-01-16 10:53:00,37.5,34.3,29.94,NW,319,3.0,3.0,88,0.00,,---,0.00,VWS V14.00,2014-01-16 15:53:00,
2014-01-16 10:58:00,37.7,34.5,29.94,NW,319,0.0,1.0,88,0.00,,---,0.00,VWS V14.00,2014-01-16 15:58:00,
2014-01-16 11:03:00,37.8,34.6,29.93,NW,320,1.0,1.0,88,0.00,,---,0.00,VWS V14.00,2014-01-16 16:03:00,
2014-01-16 11:08:00,37.9,34.7,29.93,NW,320,0.0,0.0,88,0.00,,---,0.00,VWS V14.00,2014-01-16 16:08:00,
2014-01-16 11:13:00,38.0,34.8,29.93,NW,320,0.0,0.0,88,0.00,,---,0.00,VWS V14.00,2014-01-16 16:13:00,
2014-01-16 11:18:00,38.1,34.9,29.94,NW,320,0.0,1.0,88,0.00,,---,0.00,VWS V14.00,2014-01-16 16:18:00,
2014-01-16 11:23:00,38.2,34.7,29.92,NW,320,1.0,4.0,87,0.00,,---,0.00,VWS V14.00,2014-01-16 16:23:00,
2014-01-16 11:28:00,38.3,35.1,29.92,NW,320,2.0,2.0,88,0.00,,---,0.00,VWS V14.00,2014-01-16 16:28:00,
2014-01-16 11:33:00,38.2,34.7,29.92,WNW,295,2.0,4.0,87,0.00,,---,0.00,VWS V14.00,2014-01-16 16:33:00,
2014-01-16 11:38:00,38.3,34.8,29.91,NW,318,3.0,4.0,87,0.00,,---,0.00,VWS V14.00,2014-01-16 16:38:00,
2014-01-16 11:43:00,38.2,34.7,29.92,WNW,284,1.0,2.0,87,0.00,,---,0.00,VWS V14.00,2014-01-16 16:43:00,
2014-01-16 11:49:00,38.3,34.8,29.91,NW,309,1.0,1.0,87,0.00,,---,0.00,VWS V14.00,2014-01-16 16:49:00,
2014-01-16 11:54:00,38.4,34.9,29.90,NNW,334,1.0,2.0,87,0.00,,---,0.00,VWS V14.00,2014-01-16 16:54:00,
2014-01-16 11:59:00,38.5,35.0,29.90,North,355,4.0,5.0,87,0.00,,---,0.00,VWS V14.00,2014-01-16 16:59:00,
2014-01-16 12:04:00,38.4,34.6,29.88,NW,321,4.0,4.0,86,0.00,,---,0.00,VWS V14.00,2014-01-16 17:04:00,
2014-01-16 12:09:00,38.5,35.0,29.90,NW,313,2.0,2.0,87,0.00,,---,0.00,VWS V14.00,2014-01-16 17:09:00,
2014-01-16 12:14:00,38.5,35.0,29.88,WNW,301,2.0,3.0,87,0.00,,---,0.00,VWS V14.00,2014-01-16 17:14:00,
2014-01-16 12:19:00,38.4,34.6,29.88,NW,313,4.0,4.0,86,0.00,,---,0.00,VWS V14.00,2014-01-16 17:19:00,
2014-01-16 12:24:00,38.4,34.6,29.87,North,355,0.0,2.0,86,0.00,,---,0.00,VWS V14.00,2014-01-16 17:24:00,
2014-01-16 12:29:00,38.5,35.0,29.87,NW,313,3.0,3.0,87,0.00,,---,0.00,VWS V14.00,2014-01-16 17:29:00,
2014-01-16 12:34:00,38.5,34.7,29.88,NW,319,3.0,3.0,86,0.00,,---,0.00,VWS V14.00,2014-01-16 17:34:00,
2014-01-16 12:39:00,38.6,34.8,29.88,NW,319,2.0,3.0,86,0.00,,---,0.00,VWS V14.00,2014-01-16 17:39:00,
2014-01-16 12:44:00,38.7,34.9,29.87,NW,319,1.0,1.0,86,0.00,,---,0.00,VWS V14.00,2014-01-16 17:44:00,
2014-01-16 12:49:00,38.9,35.1,29.87,NW,319,0.0,0.0,86,0.00,,---,0.00,VWS V14.00,2014-01-16 17:49:00,
2014-01-16 12:54:00,39.0,35.2,29.87,NW,319,2.0,2.0,86,0.00,,---,0.00,VWS V14.00,2014-01-16 17:54:00,
2014-01-16 12:59:00,39.0,34.9,29.87,NW,323,2.0,4.0,85,0.00,,---,0.00,VWS V14.00,2014-01-16 17:59:00,
2014-01-16 13:05:00,38.9,34.8,29.88,NW,322,2.0,2.0,85,0.00,,---,0.00,VWS V14.00,2014-01-16 18:05:00,
2014-01-16 13:10:00,38.8,34.7,29.89,WNW,291,3.0,3.0,85,0.00,,---,0.00,VWS V14.00,2014-01-16 18:10:00,
2014-01-16 13:15:00,38.8,34.7,29.89,NW,322,3.0,3.0,85,0.00,,---,0.00,VWS V14.00,2014-01-16 18:15:00,
2014-01-16 13:20:00,38.7,34.9,29.89,NW,325,2.0,2.0,86,0.00,,---,0.00,VWS V14.00,2014-01-16 18:20:00,
2014-01-16 13:25:00,38.7,34.9,29.88,NW,322,2.0,3.0,86,0.00,,---,0.00,VWS V14.00,2014-01-16 18:25:00,
2014-01-16 13:30:00,38.6,34.5,29.89,NW,312,2.0,3.0,85,0.00,,---,0.00,VWS V14.00,2014-01-16 18:30:00,
2014-01-16 13:35:00,38.5,34.7,29.89,NW,318,1.0,1.0,86,0.00,,---,0.00,VWS V14.00,2014-01-16 18:35:00,
2014-01-16 13:40:00,38.6,34.8,29.88,NW,318,0.0,0.0,86,0.00,,---,0.00,VWS V14.00,2014-01-16 18:40:00,
2014-01-16 13:45:00,38.6,34.8,29.88,NW,321,3.0,4.0,86,0.00,,---,0.00,VWS V14.00,2014-01-16 18:45:00,
2014-01-16 13:50:00,38.4,34.6,29.87,NW,326,1.0,2.0,86,0.00,,---,0.00,VWS V14.00,2014-01-16 18:50:00,
2014-01-16 13:55:00,38.4,34.6,29.87,NW,319,4.0,4.0,86,0.00,,---,0.00,VWS V14.00,2014-01-16 18:55:00,
2014-01-16 14:00:00,38.3,34.5,29.88,NW,319,2.0,4.0,86,0.00,,---,0.00,VWS V14.00,2014-01-16 19:00:00,
2014-01-16 14:06:00,38.4,34.6,29.88,NW,323,0.0,2.0,86,0.00,,---,0.00,VWS V14.00,2014-01-16 19:06:00,
2014-01-16 14:11:00,38.5,34.7,29.87,NW,315,0.0,0.0,86,0.00,,---,0.00,VWS V14.00,2014-01-16 19:11:00,
2014-01-16 14:16:00,38.6,34.8,29.87,NW,312,3.0,3.0,86,0.00,,---,0.00,VWS V14.00,2014-01-16 19:16:00,
2014-01-16 14:21:00,38.7,34.9,29.86,NNW,329,1.0,3.0,86,0.00,,---,0.00,VWS V14.00,2014-01-16 19:21:00,
2014-01-16 14:26:00,38.7,34.9,29.87,NNW,340,0.0,1.0,86,0.00,,---,0.00,VWS V14.00,2014-01-16 19:26:00,
2014-01-16 14:31:00,38.8,35.0,29.88,NNW,340,0.0,2.0,86,0.00,,---,0.00,VWS V14.00,2014-01-16 19:31:00,
2014-01-16 14:36:00,38.8,35.0,29.87,NNW,348,2.0,2.0,86,0.00,,---,0.00,VWS V14.00,2014-01-16 19:36:00,
2014-01-16 14:41:00,38.8,35.0,29.87,NNW,348,1.0,2.0,86,0.00,,---,0.00,VWS V14.00,2014-01-16 19:41:00,
2014-01-16 14:46:00,38.9,35.1,29.87,NNW,348,0.0,0.0,86,0.00,,---,0.00,VWS V14.00,2014-01-16 19:46:00,
2014-01-16 14:51:00,39.0,35.2,29.88,NNW,348,0.0,0.0,86,0.00,,---,0.00,VWS V14.00,2014-01-16 19:51:00,
2014-01-16 14:56:00,39.1,35.3,29.88,NNW,348,0.0,0.0,86,0.00,,---,0.00,VWS V14.00,2014-01-16 19:56:00,
2014-01-16 15:01:00,39.1,35.0,29.88,NNW,348,0.0,0.0,85,0.00,,---,0.00,VWS V14.00,2014-01-16 20:01:00,
2014-01-16 15:06:00,39.0,34.9,29.87,NNW,348,0.0,0.0,85,0.00,,---,0.00,VWS V14.00,2014-01-16 20:06:00,
2014-01-16 15:11:00,39.0,34.9,29.88,NNW,348,0.0,0.0,85,0.00,,---,0.00,VWS V14.00,2014-01-16 20:11:00,
2014-01-16 15:16:00,39.0,34.9,29.88,NNW,348,0.0,0.0,85,0.00,,---,0.00,VWS V14.00,2014-01-16 20:16:00,
2014-01-16 15:21:00,39.0,34.9,29.88,NNW,348,0.0,0.0,85,0.00,,---,0.00,VWS V14.00,2014-01-16 20:21:00,
2014-01-16 15:26:00,39.0,34.9,29.89,NNW,348,0.0,0.0,85,0.00,,---,0.00,VWS V14.00,2014-01-16 20:26:00,
2014-01-16 15:31:00,39.0,34.9,29.88,NNW,348,0.0,0.0,85,0.00,,---,0.00,VWS V14.00,2014-01-16 20:31:00,
2014-01-16 15:37:00,39.0,34.9,29.88,NNW,348,0.0,0.0,85,0.00,,---,0.00,VWS V14.00,2014-01-16 20:37:00,
2014-01-16 15:42:00,38.9,34.8,29.89,NNW,348,0.0,0.0,85,0.00,,---,0.00,VWS V14.00,2014-01-16 20:42:00,
2014-01-16 15:47:00,39.0,34.9,29.89,NNW,348,0.0,0.0,85,0.00,,---,0.00,VWS V14.00,2014-01-16 20:47:00,
2014-01-16 15:52:00,39.0,34.9,29.90,NNW,348,1.0,1.0,85,0.00,,---,0.00,VWS V14.00,2014-01-16 20:52:00,
2014-01-16 15:57:00,39.0,34.9,29.89,NNW,348,0.0,0.0,85,0.00,,---,0.00,VWS V14.00,2014-01-16 20:57:00,
2014-01-16 16:02:00,39.0,34.9,29.89,NNW,348,0.0,0.0,85,0.00,,---,0.00,VWS V14.00,2014-01-16 21:02:00,
2014-01-16 16:07:00,39.0,34.9,29.89,NNW,348,0.0,0.0,85,0.00,,---,0.00,VWS V14.00,2014-01-16 21:07:00,
2014-01-16 16:12:00,38.9,34.5,29.89,NNW,348,0.0,0.0,84,0.00,,---,0.00,VWS V14.00,2014-01-16 21:12:00,
2014-01-16 16:17:00,38.9,34.5,29.89,NNW,348,0.0,0.0,84,0.00,,---,0.00,VWS V14.00,2014-01-16 21:17:00,
2014-01-16 16:22:00,38.9,34.5,29.89,NNW,348,0.0,0.0,84,0.00,,---,0.00,VWS V14.00,2014-01-16 21:22:00,
2014-01-16 16:27:00,38.9,34.5,29.90,NNW,348,0.0,0.0,84,0.00,,---,0.00,VWS V14.00,2014-01-16 21:27:00,
2014-01-16 16:32:00,38.9,34.5,29.90,NNW,348,0.0,0.0,84,0.00,,---,0.00,VWS V14.00,2014-01-16 21:32:00,
2014-01-16 16:37:00,38.9,34.5,29.90,NNW,348,0.0,0.0,84,0.00,,---,0.00,VWS V14.00,2014-01-16 21:37:00,
2014-01-16 16:42:00,38.9,34.5,29.90,NNW,348,0.0,1.0,84,0.00,,---,0.00,VWS V14.00,2014-01-16 21:42:00,
2014-01-16 16:47:00,38.9,34.5,29.90,NNW,348,0.0,0.0,84,0.00,,---,0.00,VWS V14.00,2014-01-16 21:47:00,
2014-01-16 16:52:00,38.9,34.5,29.90,NNW,348,0.0,0.0,84,0.00,,---,0.00,VWS V14.00,2014-01-16 21:52:00,
2014-01-16 16:57:00,38.9,34.5,29.90,NNW,348,0.0,0.0,84,0.00,,---,0.00,VWS V14.00,2014-01-16 21:57:00,
2014-01-16 17:02:00,38.8,34.4,29.90,NNW,348,0.0,1.0,84,0.00,,---,0.00,VWS V14.00,2014-01-16 22:02:00,
2014-01-16 17:07:00,38.8,34.4,29.90,NNW,348,0.0,0.0,84,0.00,,---,0.00,VWS V14.00,2014-01-16 22:07:00,
2014-01-16 17:13:00,38.7,34.3,29.89,NNW,347,1.0,2.0,84,0.00,,---,0.00,VWS V14.00,2014-01-16 22:13:00,
2014-01-16 17:18:00,38.6,34.2,29.90,NNW,347,0.0,0.0,84,0.00,,---,0.00,VWS V14.00,2014-01-16 22:18:00,
2014-01-16 17:23:00,38.5,34.1,29.89,NNW,347,1.0,1.0,84,0.00,,---,0.00,VWS V14.00,2014-01-16 22:23:00,
2014-01-16 17:28:00,38.5,34.4,29.90,NNW,347,0.0,1.0,85,0.00,,---,0.00,VWS V14.00,2014-01-16 22:28:00,
2014-01-16 17:33:00,38.4,34.3,29.90,NNW,347,0.0,0.0,85,0.00,,---,0.00,VWS V14.00,2014-01-16 22:33:00,
2014-01-16 17:38:00,38.4,34.3,29.90,NNW,347,0.0,1.0,85,0.00,,---,0.00,VWS V14.00,2014-01-16 22:38:00,
2014-01-16 17:43:00,38.4,34.0,29.90,NNW,347,0.0,0.0,84,0.00,,---,0.00,VWS V14.00,2014-01-16 22:43:00,
2014-01-16 17:48:00,38.4,34.0,29.90,NNW,347,0.0,0.0,84,0.00,,---,0.00,VWS V14.00,2014-01-16 22:48:00,
2014-01-16 17:53:00,38.3,34.2,29.90,NNW,347,1.0,1.0,85,0.00,,---,0.00,VWS V14.00,2014-01-16 22:53:00,
2014-01-16 17:58:00,38.3,34.2,29.91,NNW,347,0.0,0.0,85,0.00,,---,0.00,VWS V14.00,2014-01-16 22:58:00,
2014-01-16 18:03:00,38.2,33.8,29.91,NNW,347,0.0,0.0,84,0.00,,---,0.00,VWS V14.00,2014-01-16 23:03:00,
2014-01-16 18:08:00,38.2,33.8,29.91,NNW,347,0.0,0.0,84,0.00,,---,0.00,VWS V14.00,2014-01-16 23:08:00,
2014-01-16 18:13:00,38.2,33.8,29.91,NNW,347,1.0,1.0,84,0.00,,---,0.00,VWS V14.00,2014-01-16 23:13:00,
2014-01-16 18:18:00,38.2,33.8,29.91,NNW,347,0.0,0.0,84,0.00,,---,0.00,VWS V14.00,2014-01-16 23:18:00,
2014-01-16 18:23:00,38.2,34.1,29.91,NNW,347,0.0,0.0,85,0.00,,---,0.00,VWS V14.00,2014-01-16 23:23:00,
2014-01-16 18:28:00,38.2,33.8,29.91,NNW,347,0.0,0.0,84,0.00,,---,0.00,VWS V14.00,2014-01-16 23:28:00,
2014-01-16 18:33:00,38.2,33.8,29.92,NNW,347,0.0,0.0,84,0.00,,---,0.00,VWS V14.00,2014-01-16 23:33:00,
2014-01-16 18:39:00,38.2,33.8,29.92,NNW,347,0.0,0.0,84,0.00,,---,0.00,VWS V14.00,2014-01-16 23:39:00,
2014-01-16 18:44:00,38.1,33.7,29.92,NNW,347,0.0,0.0,84,0.00,,---,0.00,VWS V14.00,2014-01-16 23:44:00,
2014-01-16 18:49:00,38.1,33.7,29.92,NNW,347,0.0,0.0,84,0.00,,---,0.00,VWS V14.00,2014-01-16 23:49:00,
2014-01-16 18:54:00,38.0,33.3,29.92,NNW,347,0.0,0.0,83,0.00,,---,0.00,VWS V14.00,2014-01-16 23:54:00,
2014-01-16 18:59:00,38.0,33.3,29.92,NNW,347,0.0,0.0,83,0.00,,---,0.00,VWS V14.00,2014-01-16 23:59:00,
2014-01-16 19:04:00,37.9,33.2,29.93,NNW,347,1.0,1.0,83,0.00,,---,0.00,VWS V14.00,2014-01-17 00:04:00,
2014-01-16 19:09:00,37.9,33.2,29.93,NNW,347,1.0,1.0,83,0.00,,---,0.00,VWS V14.00,2014-01-17 00:09:00,
2014-01-16 19:14:00,37.9,33.2,29.93,NNW,347,0.0,0.0,83,0.00,,---,0.00,VWS V14.00,2014-01-17 00:14:00,
2014-01-16 19:19:00,37.9,33.2,29.94,NNW,347,0.0,0.0,83,0.00,,---,0.00,VWS V14.00,2014-01-17 00:19:00,
2014-01-16 19:24:00,37.9,33.5,29.94,NNW,347,1.0,1.0,84,0.00,,---,0.00,VWS V14.00,2014-01-17 00:24:00,
2014-01-16 19:29:00,37.9,33.5,29.94,NNW,347,0.0,1.0,84,0.00,,---,0.00,VWS V14.00,2014-01-17 00:29:00,
2014-01-16 19:34:00,37.8,33.4,29.94,NNW,347,0.0,1.0,84,0.00,,---,0.00,VWS V14.00,2014-01-17 00:34:00,
2014-01-16 19:39:00,37.8,33.4,29.94,NNW,347,0.0,0.0,84,0.00,,---,0.00,VWS V14.00,2014-01-17 00:39:00,
2014-01-16 19:44:00,37.8,33.4,29.94,NNW,347,0.0,0.0,84,0.00,,---,0.00,VWS V14.00,2014-01-17 00:44:00,
2014-01-16 19:49:00,37.7,33.3,29.95,NNW,347,0.0,1.0,84,0.00,,---,0.00,VWS V14.00,2014-01-17 00:49:00,
2014-01-16 19:54:00,37.7,33.3,29.95,NNW,347,0.0,1.0,84,0.00,,---,0.00,VWS V14.00,2014-01-17 00:54:00,
2014-01-16 19:59:00,37.7,33.6,29.95,NNW,347,0.0,0.0,85,0.00,,---,0.00,VWS V14.00,2014-01-17 00:59:00,
2014-01-16 20:05:00,37.6,33.5,29.95,NNW,347,0.0,0.0,85,0.00,,---,0.00,VWS V14.00,2014-01-17 01:05:00,
2014-01-16 20:10:00,37.6,33.5,29.96,NNW,347,0.0,0.0,85,0.00,,---,0.00,VWS V14.00,2014-01-17 01:10:00,
2014-01-16 20:15:00,37.6,33.2,29.96,NNW,347,0.0,0.0,84,0.00,,---,0.00,VWS V14.00,2014-01-17 01:15:00,
2014-01-16 20:20:00,37.6,33.5,29.96,NNW,347,0.0,0.0,85,0.00,,---,0.00,VWS V14.00,2014-01-17 01:20:00,
2014-01-16 20:25:00,37.5,33.4,29.96,NNW,347,0.0,0.0,85,0.00,,---,0.00,VWS V14.00,2014-01-17 01:25:00,
2014-01-16 20:30:00,37.5,33.1,29.96,NNW,347,0.0,0.0,84,0.00,,---,0.00,VWS V14.00,2014-01-17 01:30:00,
2014-01-16 20:35:00,37.5,33.1,29.96,NNW,347,0.0,1.0,84,0.00,,---,0.00,VWS V14.00,2014-01-17 01:35:00,
2014-01-16 20:40:00,37.4,33.0,29.96,NNW,347,0.0,0.0,84,0.00,,---,0.00,VWS V14.00,2014-01-17 01:40:00,
2014-01-16 20:45:00,37.4,33.0,29.96,NNW,347,0.0,1.0,84,0.00,,---,0.00,VWS V14.00,2014-01-17 01:45:00,
2014-01-16 20:50:00,37.4,33.0,29.96,NNW,347,0.0,0.0,84,0.00,,---,0.00,VWS V14.00,2014-01-17 01:50:00,
2014-01-16 20:55:00,37.5,33.1,29.96,NNW,347,0.0,1.0,84,0.00,,---,0.00,VWS V14.00,2014-01-17 01:55:00,
2014-01-16 21:00:00,37.4,33.0,29.96,NNW,347,0.0,0.0,84,0.00,,---,0.00,VWS V14.00,2014-01-17 02:00:00,
2014-01-16 21:05:00,37.4,33.0,29.96,NNW,347,0.0,0.0,84,0.00,,---,0.00,VWS V14.00,2014-01-17 02:05:00,
2014-01-16 21:10:00,37.4,32.7,29.96,NNW,347,0.0,0.0,83,0.00,,---,0.00,VWS V14.00,2014-01-17 02:10:00,
2014-01-16 21:15:00,37.4,32.7,29.96,NNW,347,0.0,0.0,83,0.00,,---,0.00,VWS V14.00,2014-01-17 02:15:00,
2014-01-16 21:20:00,37.4,33.0,29.97,NNW,347,0.0,0.0,84,0.00,,---,0.00,VWS V14.00,2014-01-17 02:20:00,
2014-01-16 21:25:00,37.4,32.7,29.97,NNW,347,0.0,0.0,83,0.00,,---,0.00,VWS V14.00,2014-01-17 02:25:00,
2014-01-16 21:31:00,37.3,32.9,29.97,NNW,347,0.0,0.0,84,0.00,,---,0.00,VWS V14.00,2014-01-17 02:31:00,
2014-01-16 21:36:00,37.2,32.8,29.97,NNW,347,0.0,0.0,84,0.00,,---,0.00,VWS V14.00,2014-01-17 02:36:00,
2014-01-16 21:41:00,37.1,32.7,29.97,NNW,347,0.0,0.0,84,0.00,,---,0.00,VWS V14.00,2014-01-17 02:41:00,
2014-01-16 21:46:00,36.9,32.5,29.97,NNW,347,0.0,0.0,84,0.00,,---,0.00,VWS V14.00,2014-01-17 02:46:00,
2014-01-16 21:51:00,36.7,32.3,29.97,NNW,347,0.0,0.0,84,0.00,,---,0.00,VWS V14.00,2014-01-17 02:51:00,
2014-01-16 21:56:00,36.4,32.3,29.97,NNW,347,0.0,0.0,85,0.00,,---,0.00,VWS V14.00,2014-01-17 02:56:00,
2014-01-16 22:01:00,36.2,32.1,29.97,NNW,347,0.0,0.0,85,0.00,,---,0.00,VWS V14.00,2014-01-17 03:01:00,
2014-01-16 22:06:00,36.0,31.9,29.97,NNW,347,0.0,0.0,85,0.00,,---,0.00,VWS V14.00,2014-01-17 03:06:00,
2014-01-16 22:11:00,35.9,32.1,29.97,NNW,347,0.0,0.0,86,0.00,,---,0.00,VWS V14.00,2014-01-17 03:11:00,
2014-01-16 22:16:00,35.9,32.4,29.97,NNW,347,0.0,0.0,87,0.00,,---,0.00,VWS V14.00,2014-01-17 03:16:00,
2014-01-16 22:21:00,35.9,32.4,29.97,NNW,347,0.0,0.0,87,0.00,,---,0.00,VWS V14.00,2014-01-17 03:21:00,
2014-01-16 22:26:00,35.8,32.0,29.97,NNW,347,0.0,0.0,86,0.00,,---,0.00,VWS V14.00,2014-01-17 03:26:00,
2014-01-16 22:31:00,35.7,31.9,29.97,NNW,347,0.0,0.0,86,0.00,,---,0.00,VWS V14.00,2014-01-17 03:31:00,
2014-01-16 22:36:00,35.4,31.6,29.97,NNW,347,0.0,0.0,86,0.00,,---,0.00,VWS V14.00,2014-01-17 03:36:00,
2014-01-16 22:41:00,35.2,30.9,29.97,NW,313,0.0,0.0,84,0.00,,---,0.00,VWS V14.00,2014-01-17 03:41:00,
2014-01-16 22:46:00,35.1,30.8,29.97,NW,313,0.0,0.0,84,0.00,,---,0.00,VWS V14.00,2014-01-17 03:46:00,
2014-01-16 22:51:00,35.0,30.4,29.97,NW,313,0.0,0.0,83,0.00,,---,0.00,VWS V14.00,2014-01-17 03:51:00,
2014-01-16 22:57:00,34.8,30.2,29.98,NW,313,0.0,0.0,83,0.00,,---,0.00,VWS V14.00,2014-01-17 03:57:00,
2014-01-16 23:02:00,34.5,29.9,29.98,NW,313,0.0,0.0,83,0.00,,---,0.00,VWS V14.00,2014-01-17 04:02:00,
2014-01-16 23:07:00,34.3,29.7,29.97,NW,313,0.0,0.0,83,0.00,,---,0.00,VWS V14.00,2014-01-17 04:07:00,
2014-01-16 23:12:00,34.1,29.5,29.97,NW,313,0.0,0.0,83,0.00,,---,0.00,VWS V14.00,2014-01-17 04:12:00,
2014-01-16 23:17:00,33.9,29.3,29.97,NW,313,0.0,0.0,83,0.00,,---,0.00,VWS V14.00,2014-01-17 04:17:00,
2014-01-16 23:22:00,33.6,29.0,29.97,NW,313,0.0,0.0,83,0.00,,---,0.00,VWS V14.00,2014-01-17 04:22:00,
2014-01-16 23:27:00,33.5,28.6,29.97,NW,313,0.0,0.0,82,0.00,,---,0.00,VWS V14.00,2014-01-17 04:27:00,
2014-01-16 23:32:00,33.4,28.2,29.97,NW,313,1.0,1.0,81,0.00,,---,0.00,VWS V14.00,2014-01-17 04:32:00,
2014-01-16 23:37:00,33.4,28.2,29.97,NW,313,0.0,0.0,81,0.00,,---,0.00,VWS V14.00,2014-01-17 04:37:00,
2014-01-16 23:42:00,33.2,27.7,29.97,NW,313,0.0,0.0,80,0.00,,---,0.00,VWS V14.00,2014-01-17 04:42:00,
2014-01-16 23:47:00,33.1,27.3,29.97,NW,313,0.0,0.0,79,0.00,,---,0.00,VWS V14.00,2014-01-17 04:47:00,
2014-01-16 23:52:00,33.0,26.9,29.97,NW,313,0.0,0.0,78,0.00,,---,0.00,VWS V14.00,2014-01-17 04:52:00,
2014-01-16 23:57:00,32.8,26.4,29.97,NW,313,0.0,0.0,77,0.00,,---,0.00,VWS V14.00,2014-01-17 04:57:00,